Location: Geçitköy
(36.7327°N, 29.8010°E)
Time: 20:12:37
(UTC+00:00)

USA 238 - Pass Details

Date: 12 January 2026
Orbit: 883 x 1328 km, 63.4° (Epoch: 10 January)

Event Time Altitude Azimuth Distance (km) Brightness Sun altitude
Rises 16:52:54 0° 330° (NNW) 4,021 7.0 -21.2°
Reaches altitude 10° 16:55:33 10° 333° (NNW) 3,116 6.3 -21.7°
Maximum altitude 17:03:07 67° 56° (NE) 1,359 3.9 -23.2°
Enters shadow 17:08:46 22° 134° (SE) 2,534 5.3 -24.3°
